Oakes, ND

3:52 AM CDT on September 29, 2016 (GMT -0500)
Oakes

Weather History for K2D5 - February, 2013

Change the Weather History Date:

Sunday, February 17, 2013

  Actual Average (KABR) Record (KABR)
Temperature  
Mean Temperature 26 °F 18 °F  
Max Temperature 32 °F 29 °F 67 °F (1913)
Min Temperature 21 °F 8 °F -39 °F (1903)
Degree Days  
Heating Degree Days 38 47  
Month to date heating degree days 841  
Since 1 July heating degree days 5975  
Cooling Degree Days 0 0  
Month to date cooling degree days 0  
Year to date cooling degree days 0  
Moisture  
Dew Point 26 °F    
Average Humidity 100    
Maximum Humidity 100    
Minimum Humidity 93    
Precipitation  
Precipitation 0.00 in 0.02 in 0.32 in (1952)
Month to date precipitation 0.29  
Year to date precipitation 0.76  
Snow  
Snow 0.00 in - - ()
Month to date snowfall  
Since 1 July snowfall  
Snow Depth -    
Sea Level Pressure  
Sea Level Pressure 29.62 in    
Wind  
Wind Speed 14 mph (SSW)    
Max Wind Speed 23 mph    
Max Gust Speed 29 mph    
T = Trace of Precipitation, MM = Missing Value Source: NWS Daily Summary

Daily Weather History Graph

Daily Weather History Graph

Search for Another Location

Airport or City:

Trip Planner

Search our weather history database for the weather conditions in past years. The results will help you decide how hot, cold, wet, or windy it might be!

Date:

Astronomy

Feb. 17, 2013 Rise Set
Actual Time 7:31 AM CST 6:01 PM CST
Civil Twilight 7:00 AM CST 6:32 PM CST
Nautical Twilight 6:25 AM CST 7:07 PM CST
Astronomical Twilight 5:51 AM CST 7:42 PM CST
Moon 10:58 AM CST (2/17) 1:24 AM CST (2/17)
Length of Visible Light 11h 31m
Length of Day
10h 30m
Waxing Crescent, 49% of the Moon is Illuminated
Feb 17
Waxing Crescent
Feb 17
First Quarter
Feb 25
Full
Mar 4
Last Quarter
Mar 11
New

Hourly Weather History & Observations

Time (CST) Temp. Windchill Dew Point Humidity Pressure Visibility Wind Dir Wind Speed Gust Speed Precip Events Conditions
12:15 AM 21.2 °F 10.1 °F 21.2 °F 100% 29.88 in - SSE 10.4 mph - N/A   Unknown
12:35 AM 21.2 °F 10.1 °F 21.2 °F 100% 29.88 in - SSE 10.4 mph - N/A   Unknown
12:55 AM 21.2 °F 8.9 °F 21.2 °F 100% 29.88 in - SSE 12.7 mph - N/A   Unknown
1:15 AM 23.0 °F 11.7 °F 23.0 °F 100% 29.86 in - SSE 11.5 mph - N/A   Unknown
1:35 AM 23.0 °F 11.7 °F 23.0 °F 100% 29.86 in - South 11.5 mph - N/A   Unknown
1:55 AM 24.8 °F 13.4 °F 24.8 °F 100% 29.85 in - South 12.7 mph - N/A   Overcast
2:15 AM 24.8 °F 13.4 °F 24.8 °F 100% 29.84 in - South 12.7 mph - N/A   Unknown
2:35 AM 24.8 °F 13.4 °F 24.8 °F 100% 29.85 in - South 12.7 mph - N/A   Unknown
2:55 AM 24.8 °F 12.9 °F 24.8 °F 100% 29.84 in - South 13.8 mph - N/A   Unknown
3:15 AM 26.6 °F 15.7 °F 26.6 °F 100% 29.83 in - South 12.7 mph - N/A   Unknown
3:35 AM 26.6 °F 14.3 °F 26.6 °F 100% 29.81 in - South 16.1 mph - N/A   Unknown
3:55 AM 24.8 °F 9.6 °F 24.8 °F 100% 29.80 in - South 23.0 mph 28.8 mph N/A   Unknown
4:15 AM 24.8 °F 10.0 °F 24.8 °F 100% 29.78 in - South 21.9 mph - N/A   Unknown
4:35 AM 23.0 °F 7.2 °F 23.0 °F 100% 29.77 in - South 23.0 mph - N/A   Unknown
4:55 AM 23.0 °F 8.7 °F 23.0 °F 100% 29.76 in - South 18.4 mph - N/A   Unknown
5:15 AM 23.0 °F 8.7 °F 23.0 °F 100% 29.76 in - South 18.4 mph - N/A   Unknown
5:35 AM 23.0 °F 9.2 °F 23.0 °F 100% 29.75 in - South 17.3 mph - N/A   Overcast
5:55 AM 23.0 °F 9.6 °F 23.0 °F 100% 29.75 in - South 16.1 mph - N/A   Unknown
6:15 AM 23.0 °F 8.0 °F 23.0 °F 100% 29.73 in - South 20.7 mph - N/A   Unknown
6:35 AM 23.0 °F 8.0 °F 23.0 °F 100% 29.72 in - South 20.7 mph - N/A   Unknown
6:55 AM 23.0 °F 9.2 °F 23.0 °F 100% 29.72 in - South 17.3 mph - N/A   Unknown
7:15 AM 21.2 °F 6.4 °F 21.2 °F 100% 29.70 in - South 18.4 mph - N/A   Unknown
7:35 AM 21.2 °F 6.0 °F 21.2 °F 100% 29.68 in - South 19.6 mph - N/A   Unknown
7:55 AM 21.2 °F 6.8 °F 21.2 °F 100% 29.67 in - South 17.3 mph - N/A   Unknown
8:15 AM 23.0 °F 8.3 °F 23.0 °F 100% 29.67 in - South 19.6 mph - N/A   Unknown
8:35 AM 21.2 °F 6.8 °F 21.2 °F 100% 29.67 in - South 17.3 mph - N/A   Unknown
8:55 AM 21.2 °F 6.0 °F 21.2 °F 100% 29.66 in - South 19.6 mph - N/A   Unknown
9:15 AM 23.0 °F 8.7 °F 23.0 °F 100% 29.65 in - South 18.4 mph - N/A   Unknown
9:35 AM 23.0 °F 8.7 °F 23.0 °F 100% 29.64 in - South 18.4 mph - N/A   Unknown
9:55 AM 23.0 °F 9.2 °F 23.0 °F 100% 29.64 in - South 17.3 mph - N/A   Unknown
10:15 AM 24.8 °F 11.1 °F 24.8 °F 100% 29.62 in - South 18.4 mph - N/A   Unknown
10:35 AM 24.8 °F 10.3 °F 24.8 °F 100% 29.61 in - South 20.7 mph - N/A   Unknown
10:55 AM 26.6 °F 13.4 °F 26.6 °F 100% 29.61 in - South 18.4 mph - N/A   Unknown
11:15 AM 26.6 °F 13.8 °F 26.6 °F 100% 29.60 in - SSW 17.3 mph - N/A   Unknown
11:35 AM 26.6 °F 13.4 °F 26.6 °F 100% 29.59 in - South 18.4 mph 24.2 mph N/A   Unknown
11:55 AM 26.6 °F 14.3 °F 26.6 °F 100% 29.59 in - South 16.1 mph 23.0 mph N/A   Unknown
12:15 PM 26.6 °F 14.7 °F 26.6 °F 100% 29.58 in - South 15.0 mph - N/A   Unknown
12:35 PM 26.6 °F 15.2 °F 26.6 °F 100% 29.57 in - South 13.8 mph - N/A   Unknown
12:55 PM 28.4 °F 16.6 °F 28.4 °F 100% 29.55 in - South 16.1 mph - N/A   Unknown
1:15 PM 28.4 °F 16.6 °F 28.4 °F 100% 29.54 in - South 16.1 mph - N/A   Unknown
1:35 PM 28.4 °F 16.2 °F 28.4 °F 100% 29.52 in - South 17.3 mph - N/A   Unknown
1:55 PM 28.4 °F 16.2 °F 28.4 °F 100% 29.51 in - South 17.3 mph - N/A   Unknown
2:15 PM 30.2 °F 17.8 °F 28.4 °F 93% 29.49 in - South 19.6 mph 23.0 mph N/A   Unknown
2:35 PM 32.0 °F 22.1 °F 30.2 °F 93% 29.49 in - South 13.8 mph - N/A   Unknown
2:55 PM 30.2 °F 20.2 °F 28.4 °F 93% 29.49 in - SSW 12.7 mph - N/A   Unknown
3:15 PM 30.2 °F 19.8 °F 28.4 °F 93% 29.49 in - SSW 13.8 mph - N/A   Unknown
3:35 PM 30.2 °F 19.3 °F 30.2 °F 100% 29.49 in - SSW 15.0 mph - N/A   Unknown
3:55 PM 32.0 °F 24.2 °F 30.2 °F 93% 29.49 in - SSW 9.2 mph - N/A   Unknown
4:15 PM 32.0 °F 23.0 °F 32.0 °F 100% 29.48 in - SSW 11.5 mph - N/A   Unknown
4:35 PM 32.0 °F 23.0 °F 32.0 °F 100% 29.48 in - SSW 11.5 mph - N/A   Unknown
4:55 PM 32.0 °F 22.5 °F 32.0 °F 100% 29.48 in - South 12.7 mph - N/A   Unknown
5:15 PM 32.0 °F 22.5 °F 32.0 °F 100% 29.48 in - South 12.7 mph - N/A   Unknown
5:35 PM 30.2 °F 21.9 °F 30.2 °F 100% 29.50 in - SW 9.2 mph - N/A   Unknown
5:55 PM 28.4 °F 21.2 °F 28.4 °F 100% 29.50 in - South 6.9 mph - N/A   Unknown
6:15 PM 28.4 °F 22.2 °F 28.4 °F 100% 29.50 in - SSW 5.8 mph - N/A   Unknown
6:35 PM 24.8 °F 16.1 °F 24.8 °F 100% 29.50 in - SSW 8.1 mph - N/A   Unknown
6:55 PM 26.6 °F 18.2 °F 26.6 °F 100% 29.50 in - SW 8.1 mph - N/A   Unknown
7:15 PM 26.6 °F 16.8 °F 26.6 °F 100% 29.51 in - SW 10.4 mph - N/A   Unknown
7:35 PM 26.6 °F 16.8 °F 26.6 °F 100% 29.51 in - SW 10.4 mph - N/A   Unknown
7:55 PM 26.6 °F 17.5 °F 26.6 °F 100% 29.50 in - SW 9.2 mph - N/A   Unknown
8:15 PM 24.8 °F 15.3 °F 24.8 °F 100% 29.50 in - SW 9.2 mph - N/A   Unknown
8:35 PM 24.8 °F 14.6 °F 24.8 °F 100% 29.50 in - SW 10.4 mph - N/A   Unknown
8:55 PM 24.8 °F 12.4 °F 24.8 °F 100% 29.51 in - SW 15.0 mph - N/A   Unknown
9:15 PM 24.8 °F 17.9 °F 24.8 °F 100% 29.50 in - SSW 5.8 mph - N/A   Unknown
9:35 PM 24.8 °F 20.5 °F 24.8 °F 100% 29.50 in - SSW 3.5 mph - N/A   Unknown
9:55 PM 24.8 °F 20.5 °F 24.8 °F 100% 29.50 in - SW 3.5 mph - N/A   Unknown
10:15 PM 24.8 °F 20.5 °F 24.8 °F 100% 29.50 in - SSW 3.5 mph - N/A   Unknown
10:35 PM 24.8 °F 16.1 °F 24.8 °F 100% 29.51 in - SSW 8.1 mph - N/A   Unknown
10:55 PM 26.6 °F 18.2 °F 26.6 °F 100% 29.51 in - SW 8.1 mph - N/A   Unknown
11:15 PM 28.4 °F 21.2 °F 28.4 °F 100% 29.50 in - WSW 6.9 mph - N/A   Unknown
11:35 PM 28.4 °F 20.4 °F 28.4 °F 100% 29.49 in - WNW 8.1 mph - N/A   Unknown